User: anonymous   Login
Location: Unspecified
(0.0000°N, 0.0000°E)
Time: 02:53:16
(UTC+00:00)
Language:

OPTUS D1 - Orbit

View from above orbital plane
View from above orbital plane
View from above satellite
View from above satellite

Ground track
Ground track

The orbit data is extracted from the following two-line orbital elements,

1 29495U 06043B   16208.55578007 -.00000126  00000-0  00000+0 0  9995
2 29495   0.0622 286.8431 0003152 203.1526 174.7382  1.00270612 35912
Epoch (UTC): 26 July 2016 13:20:19
Eccentricity: 0.0003152
inclination: 0.0622°
perigee height: 35773 km
apogee height: 35800 km
right ascension of ascending node: 286.8431°
argument of perigee: 203.1526°
revolutions per day: 1.00270612
mean anomaly at epoch: 174.7382°
orbit number at epoch: 3591

The dashed part of the orbit path shows where the satellite is in the earth's shadow,  

DLR